User: anonymous
Location: Unspecified
(0.0000°N, 0.0000°E)
Time: 08:15:57
(UTC+02:00)
Language:

CZ-4 DEB - Orbit

View from above orbital plane
View from above orbital plane
View from above satellite
View from above satellite

Ground track
Ground track

The orbit data is extracted from the following two-line orbital elements,

1 29508U 06046D   14207.37763416  .00005656  00000-0  32826-3 0  6286
2 29508 097.7041 214.6637 0007590 149.1768 320.8117 15.12530497423244
Epoch (UTC): 26 July 2014 09:03:47
Eccentricity: 0.0007590
inclination: 97.7041°
perigee height: 523 km
apogee height: 534 km
right ascension of ascending node: 214.6637°
argument of perigee: 149.1768°
revolutions per day: 15.12530497
mean anomaly at epoch: 320.8117°
orbit number at epoch: 42324

The dashed part of the orbit path shows where the satellite is in the earth's shadow,  

DLR